Weather History for KPWK - September, 2013

Change the Weather History Date:

Saturday, September 7, 2013

  Actual Average Record
Temperature  
Mean Temperature 77 °F 68 °F  
Max Temperature 88 °F 78 °F 89 °F (2005)
Min Temperature 66 °F 58 °F 51 °F (2011)
Degree Days  
Heating Degree Days 0 1  
Month to date heating degree days 0 7  
Since 1 July heating degree days 10 17  
Cooling Degree Days 12 4  
Month to date cooling degree days 38 33  
Year to date cooling degree days 798 730  
Growing Degree Days 26 (Base 50)    
Moisture  
Dew Point 63 °F    
Average Humidity 66    
Maximum Humidity 87    
Minimum Humidity 37    
Precipitation  
Precipitation 0.03 in 0.11 in 0.86 in (1998)
Month to date precipitation 0.20 0.75  
Year to date precipitation 21.07 23.23  
Sea Level Pressure  
Sea Level Pressure 29.96 in    
Wind  
Wind Speed 5 mph (SSW)    
Max Wind Speed 16 mph    
Max Gust Speed 23 mph    
Visibility 9 miles    
Events Rain , Thunderstorm    
T = Trace of Precipitation, MM = Missing Value Source: NWS Daily Summary

Daily Weather History Graph

Daily Weather History Graph

Search for Another Location

Airport or City:

Trip Planner

Search our weather history database for the weather conditions in past years. The results will help you decide how hot, cold, wet, or windy it might be!

Date:

Astronomy

Sep. 07, 2013 Rise Set
Actual Time 6:23 AM CDT 7:14 PM CDT
Civil Twilight 5:55 AM CDT 7:43 PM CDT
Nautical Twilight 5:21 AM CDT 8:16 PM CDT
Astronomical Twilight 4:46 AM CDT 8:51 PM CDT
Moon 8:41 AM CDT (9/7) 8:09 PM CDT (9/7)
Length of Visible Light 13h 47m
Length of Day
12h 51m
Waxing Crescent, 5% of the Moon is Illuminated
Sep 7
Waxing Crescent
Sep 12
First Quarter
Sep 19
Full
Sep 26
Last Quarter
Oct 4
New

Hourly Weather History & Observations

Time (CDT) Temp. Heat Index Dew Point Humidity Pressure Visibility Wind Dir Wind Speed Gust Speed Precip Events Conditions
12:52 AM 69.1 °F - 63.0 °F 81% 30.02 in 10.0 mi South 4.6 mph - N/A   Clear
1:52 AM 69.1 °F - 63.0 °F 81% 30.01 in 10.0 mi South 3.5 mph - N/A   Clear
2:52 AM 66.9 °F - 62.1 °F 84% 30.01 in 9.0 mi Calm Calm - N/A   Clear
3:52 AM 66.9 °F - 63.0 °F 87% 30.01 in 8.0 mi Calm Calm - N/A   Clear
4:52 AM 69.1 °F - 63.0 °F 81% 30.01 in 9.0 mi Calm Calm - N/A   Clear
5:52 AM 68.0 °F - 62.1 °F 81% 30.00 in 8.0 mi South 4.6 mph - N/A   Clear
6:52 AM 69.1 °F - 62.1 °F 78% 30.00 in 7.0 mi SSW 3.5 mph - N/A   Clear
7:52 AM 71.1 °F - 63.0 °F 75% 30.00 in 7.0 mi SSW 6.9 mph - N/A   Clear
8:52 AM 73.0 °F - 63.0 °F 71% 29.99 in 7.0 mi WNW 8.1 mph - 0.00 in Rain Light Rain
9:52 AM 77.0 °F - 63.0 °F 62% 29.98 in 10.0 mi WSW 9.2 mph - 0.00 in   Clear
10:52 AM 82.9 °F 83.7 °F 62.1 °F 49% 29.97 in 10.0 mi West 10.4 mph - N/A   Clear
11:52 AM 86.0 °F 85.7 °F 60.1 °F 41% 29.95 in 10.0 mi WSW 10.4 mph 20.7 mph N/A   Clear
12:52 PM 87.1 °F 86.1 °F 57.9 °F 37% 29.92 in 10.0 mi West 10.4 mph 18.4 mph N/A   Clear
1:52 PM 84.0 °F 83.8 °F 59.0 °F 43% 29.93 in 10.0 mi SW 6.9 mph - N/A   Clear
2:52 PM 86.0 °F 85.0 °F 57.9 °F 38% 29.94 in 10.0 mi SW 5.8 mph - N/A   Mostly Cloudy
3:52 PM 78.1 °F - 64.9 °F 64% 29.94 in 10.0 mi East 8.1 mph 17.3 mph N/A   Partly Cloudy
4:40 PM 80.6 °F 82.3 °F 64.4 °F 58% 29.93 in 10.0 mi SSE 8.1 mph - N/A Thunderstorm Partly Cloudy
4:52 PM 80.1 °F 81.9 °F 64.9 °F 60% 29.91 in 10.0 mi South 9.2 mph - N/A   Scattered Clouds
5:52 PM 79.0 °F - 68.0 °F 69% 29.91 in 10.0 mi ESE 3.5 mph - 0.03 in   Clear
6:52 PM 77.0 °F - 68.0 °F 74% 29.90 in 10.0 mi SE 3.5 mph - N/A   Clear
7:52 PM 80.1 °F 81.9 °F 64.9 °F 60% 29.91 in 10.0 mi SSW 3.5 mph - N/A   Clear
8:52 PM 79.0 °F - 64.9 °F 62% 29.92 in 10.0 mi Calm Calm - N/A   Clear
9:52 PM 75.0 °F - 66.0 °F 73% 29.94 in 10.0 mi Calm Calm - N/A   Clear
10:52 PM 73.9 °F - 66.9 °F 79% 29.95 in 9.0 mi NNE 6.9 mph - N/A   Partly Cloudy
11:52 PM 75.0 °F - 66.0 °F 73% 29.96 in 10.0 mi NNE 5.8 mph - N/A   Partly Cloudy